�v������,���r���O(���x),�����t���O,���r���O(���x),�����t���O,��1(���x),�����t���O,�������x,�����t���O
5/1/2004 0:00,24.4,1,50.2,1,23.6,1,16.7,1
5/1/2004 0:00,24.4,1,50.1,1,23.6,1,16.9,1
5/1/2004 0:15,24.2,1,50.2,1,23.6,1,17,1
5/1/2004 0:30,24.2,1,50.1,1,23.6,1,17.1,1
5/1/2004 0:45,24.2,1,50.1,1,23.6,1,17.3,1
5/1/2004 1:00,24,1,50.2,1,23.6,1,17.4,1
5/1/2004 1:15,24,1,50.1,1,23.5,1,17.5,1
5/1/2004 1:30,24,1,50.1,1,23.5,1,17.6,1
5/1/2004 1:45,23.9,1,50.1,1,23.5,1,17.7,1
5/1/2004 2:00,23.8,1,50.2,1,23.5,1,17.9,1
5/1/2004 2:15,23.8,1,50.2,1,23.4,1,18,1
5/1/2004 2:30,23.7,1,50.3,1,23.4,1,18.1,1
5/1/2004 2:45,23.7,1,50.3,1,23.4,1,18.2,1
5/1/2004 3:00,23.6,1,50.3,1,23.3,1,18.3,1
5/1/2004 3:15,23.5,1,50.4,1,23.3,1,18.4,1
5/1/2004 3:30,23.5,1,50.4,1,23.3,1,18.5,1
5/1/2004 3:45,23.5,1,50.5,1,23.2,1,18.6,1
5/1/2004 4:00,23.4,1,50.5,1,23.2,1,18.6,1
5/1/2004 4:15,23.4,1,50.5,1,23.2,1,18.7,1
5/1/2004 4:30,23.3,1,50.5,1,23.1,1,18.8,1
5/1/2004 4:45,23.2,1,50.5,1,23.1,1,18.9,1
5/1/2004 5:00,23.2,1,50.5,1,23.1,1,19,1
5/1/2004 5:15,23.2,1,50.5,1,23,1,19,1
5/1/2004 5:30,23.1,1,50.5,1,23,1,19.1,1
5/1/2004 5:45,23.1,1,50.5,1,22.9,1,19.2,1
5/1/2004 6:00,23,1,50.5,1,22.9,1,19.3,1
5/1/2004 6:15,23,1,50.6,1,22.9,1,19.3,1
5/1/2004 6:30,23,1,50.6,1,22.8,1,19.4,1
5/1/2004 6:45,23,1,50.5,1,22.8,1,19.4,1
5/1/2004 7:00,22.9,1,50.6,1,22.8,1,19.5,1
5/1/2004 7:15,22.9,1,50.6,1,22.8,1,19.6,1
5/1/2004 7:30,22.9,1,50.5,1,22.8,1,19.6,1
5/1/2004 7:45,22.9,1,50.5,1,22.8,1,19.7,1
5/1/2004 8:00,23,1,50.5,1,22.9,1,19.8,1
5/1/2004 8:15,23,1,50.6,1,22.9,1,17.4,1
5/1/2004 8:30,23.1,1,51.7,1,22.9,1,17.5,1
5/1/2004 8:45,23.2,1,52.9,1,23,1,17.6,1
5/1/2004 9:00,23.3,1,52.8,1,23.1,1,17.7,1
5/1/2004 9:15,23.3,1,53.7,1,23.2,1,16.6,1
5/1/2004 9:30,23.5,1,54,1,23.3,1,16.5,1
5/1/2004 9:45,23.5,1,50.4,1,23.3,1,16.6,1
5/1/2004 10:00,23.6,1,48.1,1,23.4,1,16.7,1
5/1/2004 10:15,23.5,1,46.2,1,23.4,1,16.9,1
5/1/2004 10:30,23.5,1,44.4,1,23.3,1,17,1
5/1/2004 10:45,23.6,1,44.2,1,23.3,1,17.1,1
5/1/2004 11:00,23.7,1,43.4,1,23.3,1,17.2,1
5/1/2004 11:15,23.6,1,42.7,1,23.3,1,16.4,1
5/1/2004 11:30,23.6,1,43,1,23.3,1,16.4,1
5/1/2004 11:45,23.7,1,43.1,1,23.3,1,16.5,1
5/1/2004 12:00,23.8,1,43.1,1,23.3,1,16.7,1
5/1/2004 12:15,23.8,1,43.1,1,23.4,1,16.8,1
5/1/2004 12:30,23.9,1,42.8,1,23.4,1,16.9,1
5/1/2004 12:45,23.9,1,42.9,1,23.4,1,17.1,1
5/1/2004 13:00,23.9,1,42.7,1,23.5,1,17.2,1
5/1/2004 13:15,24,1,42.9,1,23.5,1,17.3,1
5/1/2004 13:30,24,1,42.4,1,23.5,1,17.4,1
5/1/2004 13:45,24,1,42.5,1,23.6,1,17.6,1
5/1/2004 14:00,24,1,42.5,1,23.6,1,17.7,1
5/1/2004 14:15,24.2,1,44,1,23.7,1,17.8,1
5/1/2004 14:30,24.8,1,46.1,1,23.7,1,17.9,1
5/1/2004 14:45,24.7,1,45.6,1,23.6,1,18,1
5/1/2004 15:00,24.7,1,45,1,23.6,1,17,1
5/1/2004 15:15,24.7,1,45.1,1,23.6,1,17.1,1
5/1/2004 15:30,24.6,1,44.6,1,23.5,1,17.2,1
5/1/2004 15:45,24.4,1,43.7,1,23.5,1,17.4,1
5/1/2004 16:00,24.3,1,44.4,1,23.4,1,17.5,1
5/1/2004 16:15,24.3,1,44.6,1,23.2,1,17.6,1
5/1/2004 16:30,24.3,1,44.8,1,23.1,1,17.7,1
5/1/2004 16:45,24.2,1,45,1,23.2,1,17.8,1
5/1/2004 17:00,24.2,1,45.6,1,23.2,1,18,1
5/1/2004 17:15,24.2,1,45.8,1,23.2,1,18.1,1
5/1/2004 17:30,24.2,1,46,1,23.2,1,18.2,1
5/1/2004 17:45,24.2,1,45.9,1,23.2,1,18.3,1
5/1/2004 18:00,24.1,1,46,1,23.2,1,18.4,1
5/1/2004 18:15,24.1,1,46.2,1,23.2,1,17.5,1
5/1/2004 18:30,24.2,1,46,1,23.2,1,17.6,1
5/1/2004 18:45,24.2,1,45.8,1,23.2,1,17.7,1
5/1/2004 19:00,24.3,1,46.7,1,23.1,1,17.8,1
5/1/2004 19:15,25.2,1,49.8,1,23.1,1,17.9,1
5/1/2004 19:30,24.9,1,49,1,23,1,18,1
5/1/2004 19:45,24.8,1,46.3,1,22.9,1,18.1,1
5/1/2004 20:00,24.7,1,45.8,1,22.9,1,18.2,1
5/1/2004 20:15,24.6,1,45.7,1,22.8,1,18.3,1
5/1/2004 20:30,24.5,1,45.5,1,22.8,1,18.3,1
5/1/2004 20:45,24.4,1,45.5,1,22.7,1,18.4,1
5/1/2004 21:00,24.3,1,45.7,1,22.6,1,18.5,1
5/1/2004 21:15,24.1,1,46.4,1,22.6,1,18.6,1
5/1/2004 21:30,24.2,1,45.7,1,22.5,1,18.7,1
5/1/2004 21:45,24.1,1,45.8,1,22.4,1,17.5,1
5/1/2004 22:00,24,1,45.8,1,22.4,1,17.6,1
5/1/2004 22:15,23.9,1,48.3,1,22.3,1,17.7,1
5/1/2004 22:30,23.8,1,47.4,1,22.2,1,17.8,1
5/1/2004 22:45,23.6,1,47.1,1,22.2,1,17.9,1
5/1/2004 23:00,23.6,1,46.6,1,22.1,1,17.9,1
5/1/2004 23:15,23.5,1,46.5,1,22,1,18,1
5/1/2004 23:30,23.3,1,46.3,1,21.9,1,18.1,1
5/1/2004 23:45,23.2,1,46.2,1,21.9,1,18.2,1
5/2/2004 0:00,23.1,1,45.9,1,21.8,1,18.3,1
5/2/2004 0:15,23,1,46,1,21.7,1,18.4,1
5/2/2004 0:30,22.9,1,45.7,1,21.8,1,18.5,1
5/2/2004 0:45,22.8,1,45.8,1,21.9,1,18.5,1
5/2/2004 1:00,22.7,1,45.6,1,21.9,1,18.6,1
5/2/2004 1:15,22.6,1,45.6,1,21.8,1,18.7,1
5/2/2004 1:30,22.5,1,45.5,1,21.8,1,18.8,1
5/2/2004 1:45,22.4,1,45.4,1,21.7,1,18.8,1
5/2/2004 2:00,22.3,1,45.3,1,21.6,1,18.9,1
5/2/2004 2:15,22.2,1,45.1,1,21.5,1,18.9,1
5/2/2004 2:30,22.1,1,44.8,1,21.5,1,19,1
5/2/2004 2:45,22,1,44.7,1,21.4,1,19,1
5/2/2004 3:00,21.9,1,44.5,1,21.4,1,19.1,1
5/2/2004 3:15,21.8,1,44.3,1,21.4,1,19.2,1
5/2/2004 3:30,21.7,1,44.1,1,21.4,1,19.2,1
5/2/2004 3:45,21.6,1,44.1,1,21.4,1,19.3,1
5/2/2004 4:00,21.5,1,44.2,1,21.3,1,19.3,1
5/2/2004 4:15,21.4,1,44.6,1,21.3,1,19.3,1
5/2/2004 4:30,21.4,1,44.5,1,21.3,1,19.4,1
5/2/2004 4:45,21.3,1,44.4,1,21.3,1,19.4,1
5/2/2004 5:00,21.3,1,44.5,1,21.2,1,19.5,1
5/2/2004 5:15,21.2,1,44.6,1,21.2,1,19.5,1
5/2/2004 5:30,21.2,1,44.5,1,21.1,1,19.5,1
5/2/2004 5:45,21.1,1,44.4,1,21.1,1,19.6,1
5/2/2004 6:00,21,1,44.5,1,21.1,1,19.6,1
5/2/2004 6:15,20.8,1,44.7,1,21,1,19.6,1
5/2/2004 6:30,20.8,1,44.7,1,21,1,19.7,1
5/2/2004 6:45,20.7,1,44.9,1,21,1,19.7,1
5/2/2004 7:00,20.6,1,45,1,20.9,1,19.7,1
5/2/2004 7:15,20.4,1,45.7,1,20.8,1,17.6,1
5/2/2004 7:30,20.7,1,45.5,1,20.7,1,17.7,1
5/2/2004 7:45,20.6,1,45.7,1,20.5,1,17.2,1
5/2/2004 8:00,21.4,1,46.4,1,20.4,1,17.3,1
5/2/2004 8:15,21.9,1,46.9,1,20.3,1,17.4,1
5/2/2004 8:30,21.8,1,47.4,1,20.2,1,17.5,1
5/2/2004 8:45,21.8,1,47.5,1,20.1,1,17.5,1
5/2/2004 9:00,21.7,1,48.4,1,20.1,1,17.6,1
5/2/2004 9:15,21.8,1,48.9,1,20,1,17.7,1
5/2/2004 9:30,21.8,1,50,1,20,1,17.8,1
5/2/2004 9:45,21.8,1,51.2,1,20,1,17.8,1
5/2/2004 10:00,22.1,1,54.5,1,20.1,1,17.9,1
5/2/2004 10:15,22,1,51.6,1,20.1,1,17.2,1
5/2/2004 10:30,21.9,1,50.1,1,20.2,1,17,1
5/2/2004 10:45,21.8,1,49.5,1,20.2,1,17.1,1
5/2/2004 11:00,21.8,1,48.9,1,20.3,1,17.2,1
5/2/2004 11:15,21.7,1,48.6,1,20.4,1,17.2,1
5/2/2004 11:30,21.7,1,48,1,20.4,1,17.3,1
5/2/2004 11:45,21.6,1,47.8,1,20.4,1,17.4,1
5/2/2004 12:00,21.6,1,47.7,1,20.5,1,17.5,1
5/2/2004 12:15,21.6,1,47.5,1,20.5,1,17.5,1
5/2/2004 12:30,21.6,1,47.3,1,20.5,1,17.6,1
5/2/2004 12:45,21.6,1,47.2,1,20.5,1,17.7,1
5/2/2004 13:00,21.6,1,47.1,1,20.5,1,17.8,1
5/2/2004 13:15,21.6,1,46.9,1,20.6,1,17.8,1
5/2/2004 13:30,21.6,1,46.9,1,20.6,1,17.9,1
5/2/2004 13:45,21.6,1,46.8,1,20.6,1,18,1
5/2/2004 14:00,21.6,1,46.8,1,20.6,1,18,1
5/2/2004 14:15,21.6,1,46.7,1,20.7,1,18.1,1
5/2/2004 14:30,21.6,1,46.6,1,20.7,1,18.2,1
5/2/2004 14:45,21.6,1,46.6,1,20.7,1,18.2,1
5/2/2004 15:00,21.6,1,46.5,1,20.7,1,18.3,1
5/2/2004 15:15,21.6,1,46.4,1,20.8,1,18.4,1
5/2/2004 15:30,21.6,1,46.4,1,20.8,1,18.4,1
5/2/2004 15:45,21.6,1,46.2,1,20.8,1,18.5,1
5/2/2004 16:00,21.6,1,46.3,1,20.8,1,18.5,1
5/2/2004 16:15,21.6,1,46.2,1,20.8,1,18.6,1
5/2/2004 16:30,21.6,1,46,1,20.8,1,18.7,1
5/2/2004 16:45,21.6,1,46,1,20.8,1,18.7,1
5/2/2004 17:00,21.6,1,46,1,20.8,1,18.8,1
5/2/2004 17:15,21.6,1,45.9,1,20.8,1,18.8,1
5/2/2004 17:30,21.5,1,46,1,20.8,1,18.9,1
5/2/2004 17:45,21.5,1,45.9,1,20.7,1,18.9,1
5/2/2004 18:00,21.5,1,46,1,20.7,1,17.4,1
5/2/2004 18:15,21.6,1,46.3,1,20.7,1,17.5,1
5/2/2004 18:30,21.6,1,46.3,1,20.6,1,17.5,1
5/2/2004 18:45,21.7,1,46.3,1,20.6,1,17.6,1
5/2/2004 19:00,21.9,1,47,1,20.5,1,17.7,1
5/2/2004 19:15,22,1,47.4,1,20.4,1,17,1
5/2/2004 19:30,22.3,1,50.8,1,20.3,1,17.1,1
5/2/2004 19:45,22.9,1,49,1,20.3,1,17.1,1
5/2/2004 20:00,22.9,1,46.7,1,20.2,1,17.2,1
5/2/2004 20:15,22.7,1,46.3,1,20.2,1,17.3,1
5/2/2004 20:30,22.6,1,45.7,1,20.1,1,17.3,1
5/2/2004 20:45,22.5,1,45.7,1,20,1,17.4,1
5/2/2004 21:00,22.4,1,45.8,1,20,1,16.9,1
5/2/2004 21:15,22.3,1,47.6,1,19.9,1,17,1
5/2/2004 21:30,22.3,1,47.4,1,19.9,1,17,1
5/2/2004 21:45,22.4,1,47.1,1,19.8,1,17.1,1
5/2/2004 22:00,22.3,1,46.8,1,19.8,1,17.2,1
5/2/2004 22:15,22.2,1,46.5,1,19.8,1,17.3,1
5/2/2004 22:30,22.1,1,46.5,1,19.7,1,17.4,1
5/2/2004 22:45,22,1,46.4,1,19.7,1,17.4,1
5/2/2004 23:00,21.9,1,46.5,1,19.7,1,17.5,1
5/2/2004 23:15,21.8,1,46.6,1,19.6,1,17.6,1
5/2/2004 23:30,21.7,1,46.7,1,19.6,1,17.7,1
5/2/2004 23:45,21.6,1,46.8,1,19.6,1,17.7,1
5/3/2004 0:00,21.5,1,46.8,1,19.6,1,17.8,1
5/3/2004 0:15,21.4,1,47,1,19.6,1,17.9,1
5/3/2004 0:30,21.3,1,47,1,19.6,1,17.9,1
5/3/2004 0:45,21.3,1,47.1,1,19.7,1,18,1
5/3/2004 1:00,21.2,1,47.2,1,19.7,1,18.1,1
5/3/2004 1:15,21.1,1,47.2,1,19.6,1,18.1,1
5/3/2004 1:30,21,1,47.2,1,19.6,1,18.2,1
5/3/2004 1:45,20.9,1,47.3,1,19.6,1,18.2,1
5/3/2004 2:00,20.8,1,47.4,1,19.5,1,18.3,1
5/3/2004 2:15,20.8,1,47.4,1,19.5,1,18.3,1
5/3/2004 2:30,20.7,1,47.5,1,19.5,1,18.4,1
5/3/2004 2:45,20.6,1,47.6,1,19.4,1,18.4,1
5/3/2004 3:00,20.6,1,47.5,1,19.3,1,18.5,1
5/3/2004 3:15,20.5,1,47.5,1,19.4,1,18.5,1
5/3/2004 3:30,20.4,1,47.7,1,19.3,1,18.6,1
5/3/2004 3:45,20.4,1,47.7,1,19.2,1,18.6,1
5/3/2004 4:00,20.4,1,47.7,1,19.2,1,18.7,1
5/3/2004 4:15,20.3,1,47.7,1,19.1,1,18.7,1
5/3/2004 4:30,20.1,1,47.9,1,19,1,18.8,1
5/3/2004 4:45,20.1,1,48.3,1,19,1,18.8,1
5/3/2004 5:00,20.1,1,48.1,1,19,1,18.8,1
5/3/2004 5:15,20.1,1,48.3,1,19,1,18.9,1
5/3/2004 5:30,20.1,1,48.4,1,19,1,18.9,1
5/3/2004 5:45,20,1,48.4,1,18.9,1,18.9,1
5/3/2004 6:00,20,1,48.6,1,18.9,1,19,1
5/3/2004 6:15,19.9,1,48.4,1,18.9,1,19,1
5/3/2004 6:30,19.8,1,48.6,1,18.8,1,19,1
5/3/2004 6:45,19.8,1,48.8,1,18.7,1,19,1
5/3/2004 7:00,19.7,1,48.7,1,18.6,1,19,1
5/3/2004 7:15,19.6,1,48.8,1,18.6,1,19.1,1
5/3/2004 7:30,19.6,1,49.2,1,18.5,1,17.2,1
5/3/2004 7:45,19.7,1,49.2,1,18.5,1,17.2,1
5/3/2004 8:00,19.7,1,49.4,1,18.4,1,16.9,1
5/3/2004 8:15,19.7,1,50.9,1,18.3,1,17,1
5/3/2004 8:30,19.7,1,50.1,1,18.3,1,17.1,1
5/3/2004 8:45,19.7,1,49.9,1,18.2,1,17.1,1
5/3/2004 9:00,19.7,1,50,1,18.1,1,17.2,1
5/3/2004 9:15,19.6,1,49.8,1,18.1,1,17.3,1
5/3/2004 9:30,19.6,1,49.9,1,18,1,17.3,1
5/3/2004 9:45,19.6,1,49.7,1,17.9,1,17.4,1
5/3/2004 10:00,19.6,1,49.8,1,17.9,1,16.8,1
5/3/2004 10:15,19.6,1,49.9,1,17.8,1,16.7,1
5/3/2004 10:30,19.7,1,49.6,1,17.8,1,16.7,1
5/3/2004 10:45,19.8,1,51,1,17.8,1,16.8,1
5/3/2004 11:00,19.8,1,50.6,1,17.8,1,16.9,1
5/3/2004 11:15,19.8,1,51.1,1,17.8,1,16.9,1
5/3/2004 11:30,20.4,1,53,1,17.8,1,17,1
5/3/2004 11:45,20.7,1,55.8,1,17.9,1,17.1,1
5/3/2004 12:00,20.5,1,53.5,1,18,1,17.1,1
5/3/2004 12:15,20.4,1,52.5,1,18,1,17.2,1
5/3/2004 12:30,20.3,1,51.9,1,18.1,1,17.2,1
5/3/2004 12:45,20.2,1,51.8,1,18.2,1,17.3,1
5/3/2004 13:00,20.2,1,51.6,1,18.2,1,17.4,1
5/3/2004 13:15,20.1,1,51.6,1,18.3,1,16.8,1
5/3/2004 13:30,20.1,1,51.6,1,18.3,1,16.8,1
5/3/2004 13:45,20.1,1,51.5,1,18.3,1,16.9,1
5/3/2004 14:00,20,1,51.5,1,18.4,1,17,1
5/3/2004 14:15,20.2,1,51.6,1,18.4,1,17,1
5/3/2004 14:30,20.4,1,52.1,1,18.4,1,17.1,1
5/3/2004 14:45,20.5,1,52.4,1,18.5,1,17.2,1
5/3/2004 15:00,20.4,1,52.5,1,18.5,1,16.7,1
5/3/2004 15:15,20.4,1,52.6,1,18.6,1,16.7,1
5/3/2004 15:30,20.4,1,52.6,1,18.6,1,16.8,1
5/3/2004 15:45,20.4,1,52.5,1,18.7,1,16.9,1
5/3/2004 16:00,20.4,1,52.7,1,18.7,1,17,1
5/3/2004 16:15,20.4,1,53.2,1,18.8,1,17,1
5/3/2004 16:30,20.4,1,52.8,1,18.8,1,17.1,1
5/3/2004 16:45,20.4,1,52.8,1,18.8,1,17.2,1
5/3/2004 17:00,20.5,1,52.9,1,18.9,1,17.3,1
5/3/2004 17:15,20.5,1,53,1,18.9,1,17.3,1
5/3/2004 17:30,20.6,1,52.7,1,19,1,17.4,1
5/3/2004 17:45,20.7,1,52.6,1,19,1,17.5,1
5/3/2004 18:00,20.7,1,53.5,1,19,1,16.8,1
5/3/2004 18:15,20.9,1,53.8,1,19.1,1,16.9,1
5/3/2004 18:30,21.3,1,53.2,1,19.1,1,16.9,1
5/3/2004 18:45,22.1,1,54.6,1,19.1,1,17,1
5/3/2004 19:00,21.9,1,53.3,1,19.2,1,16.6,1
5/3/2004 19:15,21.8,1,52.8,1,19.2,1,16.7,1
5/3/2004 19:30,21.8,1,53,1,19.3,1,16.7,1
5/3/2004 19:45,21.8,1,53.1,1,19.3,1,16.8,1
5/3/2004 20:00,21.8,1,53.2,1,19.3,1,16.9,1
5/3/2004 20:15,21.7,1,53.5,1,19.3,1,17,1
5/3/2004 20:30,21.7,1,53.2,1,19.4,1,17.1,1
5/3/2004 20:45,21.7,1,53.3,1,19.4,1,17.1,1
5/3/2004 21:00,21.7,1,53.3,1,19.4,1,17.2,1
5/3/2004 21:15,21.6,1,53.2,1,19.4,1,17.3,1
5/3/2004 21:30,21.6,1,53.1,1,19.4,1,17.4,1
5/3/2004 21:45,21.6,1,53.2,1,19.4,1,17.5,1
5/3/2004 22:00,21.5,1,53.2,1,19.4,1,16.7,1
5/3/2004 22:15,21.6,1,57.6,1,19.4,1,16.8,1
5/3/2004 22:30,21.4,1,54.3,1,19.3,1,16.9,1
5/3/2004 22:45,21.4,1,53.9,1,19.4,1,17,1
5/3/2004 23:00,21.3,1,53.8,1,19.4,1,17.1,1
5/3/2004 23:15,21.2,1,53.6,1,19.3,1,17.1,1
5/3/2004 23:30,21.1,1,53.3,1,19.3,1,17.2,1
5/3/2004 23:45,21,1,53.5,1,19.3,1,17.3,1
5/4/2004 0:00,20.9,1,53.3,1,19.3,1,17.4,1
5/4/2004 0:15,20.9,1,53.3,1,19.3,1,17.5,1
5/4/2004 0:30,20.8,1,53.2,1,19.3,1,17.5,1
5/4/2004 0:45,20.7,1,53.2,1,19.2,1,17.6,1
5/4/2004 1:00,20.7,1,53,1,19.2,1,17.7,1
5/4/2004 1:15,20.8,1,53.3,1,19.2,1,17.8,1
5/4/2004 1:30,20.7,1,53.2,1,19.2,1,17.8,1
5/4/2004 1:45,20.7,1,53.5,1,19.2,1,17.9,1
5/4/2004 2:00,20.7,1,53.7,1,19.2,1,18,1
5/4/2004 2:15,20.7,1,53.7,1,19.1,1,18,1
5/4/2004 2:30,20.6,1,53.8,1,19.1,1,18.1,1
5/4/2004 2:45,20.6,1,53.9,1,19.1,1,18.2,1
5/4/2004 3:00,20.6,1,53.8,1,19.2,1,18.2,1
5/4/2004 3:15,20.6,1,54.1,1,19.2,1,18.3,1
5/4/2004 3:30,20.6,1,54,1,19.2,1,18.3,1
5/4/2004 3:45,20.5,1,54.2,1,19.2,1,18.4,1
5/4/2004 4:00,20.5,1,54.6,1,19.3,1,18.4,1
5/4/2004 4:15,20.5,1,54.5,1,19.4,1,18.5,1
5/4/2004 4:30,20.5,1,54.5,1,19.4,1,18.6,1
5/4/2004 4:45,20.6,1,54.8,1,19.5,1,18.6,1
5/4/2004 5:00,20.6,1,55,1,19.6,1,18.7,1
5/4/2004 5:15,20.6,1,55.1,1,19.7,1,18.7,1
5/4/2004 5:30,20.6,1,55.1,1,19.7,1,18.8,1
5/4/2004 5:45,20.6,1,55.6,1,19.8,1,18.8,1
5/4/2004 6:00,20.6,1,55.5,1,19.8,1,18.9,1
5/4/2004 6:15,20.6,1,55.9,1,19.9,1,18.9,1
5/4/2004 6:30,20.6,1,56,1,19.9,1,19,1
5/4/2004 6:45,20.5,1,55.9,1,20,1,19,1
5/4/2004 7:00,20.5,1,56.2,1,20.1,1,19.1,1
5/4/2004 7:15,20.5,1,56.4,1,20.1,1,19.1,1
5/4/2004 7:30,20.5,1,56.1,1,20.1,1,19.2,1
5/4/2004 7:45,20.6,1,56.7,1,20.1,1,17.4,1
5/4/2004 8:00,20.8,1,57,1,20.1,1,17.4,1
5/4/2004 8:15,20.8,1,57.3,1,20.1,1,17,1
5/4/2004 8:30,21,1,58.9,1,20.1,1,17.1,1
5/4/2004 8:45,21.1,1,58.6,1,20.1,1,17.2,1
5/4/2004 9:00,21.2,1,59.3,1,20.1,1,17.3,1
5/4/2004 9:15,21.3,1,60.8,1,20.1,1,17.4,1
5/4/2004 9:30,21.6,1,65.5,1,20.2,1,17.5,1
5/4/2004 9:45,21.6,1,63.1,1,20.3,1,17.6,1
5/4/2004 10:00,21.6,1,62.7,1,20.4,1,17.6,1
5/4/2004 10:15,21.7,1,62,1,20.6,1,17.7,1
5/4/2004 10:30,21.8,1,61.4,1,20.6,1,16.9,1
5/4/2004 10:45,21.8,1,61.1,1,20.7,1,16.9,1
5/4/2004 11:00,21.8,1,61,1,20.8,1,17.1,1
5/4/2004 11:15,21.9,1,62.1,1,20.9,1,17.1,1
5/4/2004 11:30,21.9,1,61.7,1,20.9,1,17.2,1
5/4/2004 11:45,22,1,61.7,1,21,1,17.3,1
5/4/2004 12:00,22,1,61.5,1,21.1,1,17.4,1
5/4/2004 12:15,22.1,1,61.3,1,21.2,1,17.5,1
5/4/2004 12:30,22.1,1,61.3,1,21.3,1,17.6,1
5/4/2004 12:45,22.2,1,61.1,1,21.3,1,17.7,1
5/4/2004 13:00,22.2,1,61.4,1,21.4,1,17.8,1
5/4/2004 13:15,22.3,1,61.3,1,21.5,1,17.9,1
5/4/2004 13:30,22.3,1,61.3,1,21.6,1,18,1
5/4/2004 13:45,22.4,1,61.3,1,21.6,1,18.1,1
5/4/2004 14:00,22.5,1,61.1,1,21.7,1,18.2,1
5/4/2004 14:15,22.5,1,61.3,1,21.8,1,18.3,1
5/4/2004 14:30,22.6,1,61.1,1,21.8,1,18.4,1
5/4/2004 14:45,22.6,1,61.2,1,21.9,1,18.5,1
5/4/2004 15:00,22.7,1,61.4,1,22,1,18.6,1
5/4/2004 15:15,22.7,1,61.5,1,22.1,1,18.7,1
5/4/2004 15:30,22.8,1,61.7,1,22.2,1,18.7,1
5/4/2004 15:45,22.8,1,61.6,1,22.2,1,18.8,1
5/4/2004 16:00,22.9,1,62,1,22.3,1,18.9,1
5/4/2004 16:15,22.9,1,61.6,1,22.4,1,19,1
5/4/2004 16:30,23,1,61.3,1,22.4,1,19.1,1
5/4/2004 16:45,23,1,61.3,1,22.5,1,19.2,1
5/4/2004 17:00,23,1,61.5,1,22.5,1,19.2,1
5/4/2004 17:15,23,1,61.3,1,22.5,1,19.3,1
5/4/2004 17:30,23.1,1,61.2,1,22.6,1,19.4,1
5/4/2004 17:45,23.1,1,61.1,1,22.6,1,19.5,1
5/4/2004 18:00,23.1,1,61,1,22.7,1,19.6,1
5/4/2004 18:15,23.2,1,61.1,1,22.7,1,19.6,1
5/4/2004 18:30,23.3,1,60.7,1,22.7,1,19.7,1
5/4/2004 18:45,23.4,1,60,1,22.7,1,19.8,1
5/4/2004 19:00,23.5,1,60.3,1,22.8,1,19.8,1
5/4/2004 19:15,23.5,1,60,1,22.8,1,19.9,1
5/4/2004 19:30,23.6,1,59.9,1,22.8,1,16.7,1
5/4/2004 19:45,23.7,1,59.5,1,22.9,1,16.3,1
5/4/2004 20:00,23.7,1,59.1,1,22.9,1,16.4,1
5/4/2004 20:15,24.7,1,63.2,1,22.9,1,16.6,1
5/4/2004 20:30,24.5,1,59.4,1,22.9,1,16.7,1
5/4/2004 20:45,24.4,1,59.5,1,23,1,16.9,1
5/4/2004 21:00,24.3,1,59.4,1,23,1,17,1
5/4/2004 21:15,24.3,1,59.1,1,23,1,17.1,1
5/4/2004 21:30,24.4,1,62.9,1,23,1,17.3,1
5/4/2004 21:45,24.2,1,59.8,1,23,1,17.4,1
5/4/2004 22:00,24.1,1,58.5,1,23.1,1,16.6,1
5/4/2004 22:15,24.1,1,58.6,1,23.1,1,16.7,1
5/4/2004 22:30,24.1,1,58.6,1,23.1,1,16.9,1
5/4/2004 22:45,24,1,57.8,1,23.2,1,17,1
5/4/2004 23:00,24,1,58.4,1,23.2,1,17.1,1
5/4/2004 23:15,23.9,1,58,1,23.2,1,17.3,1
5/4/2004 23:30,23.9,1,58.3,1,23.2,1,17.4,1
5/4/2004 23:45,23.9,1,58.2,1,23.2,1,17.5,1
5/5/2004 0:00,23.8,1,58.1,1,23.3,1,17.6,1
5/5/2004 0:15,23.8,1,58.3,1,23.3,1,17.8,1
5/5/2004 0:30,23.8,1,58.4,1,23.3,1,17.9,1
5/5/2004 0:45,23.8,1,58.6,1,23.3,1,18,1
5/5/2004 1:00,23.8,1,58.5,1,23.4,1,18.1,1
5/5/2004 1:15,23.7,1,58.4,1,23.4,1,18.2,1
5/5/2004 1:30,23.7,1,58.1,1,23.4,1,18.3,1
5/5/2004 1:45,23.7,1,58.2,1,23.4,1,18.4,1
5/5/2004 2:00,23.6,1,58.2,1,23.3,1,17.1,1
5/5/2004 2:15,23.5,1,57.9,1,23.3,1,17.2,1
5/5/2004 2:30,23.5,1,57.9,1,23.3,1,17.3,1
5/5/2004 2:45,23.4,1,57.7,1,23.2,1,17.4,1
5/5/2004 3:00,23.4,1,57.6,1,23.2,1,17.5,1
5/5/2004 3:15,23.4,1,57.4,1,23.2,1,17.6,1
5/5/2004 3:30,23.4,1,57.3,1,23.1,1,17.8,1
5/5/2004 3:45,23.2,1,57.1,1,23.1,1,17.9,1
5/5/2004 4:00,23.2,1,57.3,1,23,1,18,1
5/5/2004 4:15,23.1,1,57.5,1,22.9,1,18.1,1
5/5/2004 4:30,23.1,1,57.4,1,22.9,1,18.2,1
5/5/2004 4:45,23.1,1,57.4,1,22.8,1,18.3,1
5/5/2004 5:00,23.1,1,57.3,1,22.8,1,18.4,1
5/5/2004 5:15,23,1,57.2,1,22.8,1,18.5,1
5/5/2004 5:30,23,1,57.2,1,22.8,1,18.6,1
5/5/2004 5:45,22.9,1,57,1,22.8,1,18.6,1
5/5/2004 6:00,22.8,1,56.7,1,22.7,1,18.7,1
5/5/2004 6:15,22.7,1,56.6,1,22.7,1,18.8,1
5/5/2004 6:30,22.6,1,56.9,1,22.6,1,18.9,1
5/5/2004 6:45,22.5,1,56.9,1,22.5,1,19,1
5/5/2004 7:00,22.4,1,56.7,1,22.5,1,19.1,1
5/5/2004 7:15,22.3,1,56.6,1,22.4,1,19.1,1
5/5/2004 7:30,22.3,1,56.7,1,22.4,1,19.2,1
5/5/2004 7:45,22.2,1,56.6,1,22.3,1,19.2,1
5/5/2004 8:00,22.1,1,56.4,1,22.2,1,19.3,1
5/5/2004 8:15,22,1,56.7,1,22.2,1,19.4,1
5/5/2004 8:30,21.9,1,57.4,1,22.2,1,17.3,1
5/5/2004 8:45,22.2,1,57.3,1,22.1,1,16.7,1
5/5/2004 9:00,22.1,1,57.1,1,22,1,16.8,1
5/5/2004 9:15,22,1,57.3,1,21.9,1,16.6,1
5/5/2004 9:30,22,1,57.2,1,21.8,1,16.7,1
5/5/2004 9:45,22,1,57.1,1,21.6,1,16.8,1
5/5/2004 10:00,21.9,1,56.9,1,21.5,1,16.9,1
5/5/2004 10:15,21.8,1,56.7,1,21.4,1,17,1
5/5/2004 10:30,21.8,1,56.7,1,21.2,1,17.1,1
5/5/2004 10:45,21.7,1,56.4,1,21.1,1,17.1,1
5/5/2004 11:00,21.6,1,56.4,1,21,1,17.2,1
5/5/2004 11:15,21.6,1,56.3,1,20.9,1,17.3,1
5/5/2004 11:30,21.5,1,56.2,1,20.8,1,17.4,1
5/5/2004 11:45,21.5,1,56.2,1,20.7,1,17.5,1
5/5/2004 12:00,21.4,1,56.5,1,20.6,1,16.9,1
5/5/2004 12:15,21.4,1,56,1,20.5,1,16.6,1
5/5/2004 12:30,21.4,1,55.9,1,20.5,1,16.7,1
5/5/2004 12:45,21.4,1,55.6,1,20.4,1,16.8,1
5/5/2004 13:00,21.6,1,56.1,1,20.4,1,16.9,1
5/5/2004 13:15,21.6,1,55.4,1,20.4,1,17,1
5/5/2004 13:30,21.8,1,56.4,1,20.3,1,17.1,1
5/5/2004 13:45,21.6,1,55.6,1,20.3,1,17.1,1
5/5/2004 14:00,21.6,1,55.3,1,20.3,1,17.2,1
5/5/2004 14:15,21.5,1,55.3,1,20.2,1,17.3,1
5/5/2004 14:30,21.4,1,55.1,1,20.2,1,17.4,1
5/5/2004 14:45,21.4,1,54.8,1,20.2,1,17.5,1
5/5/2004 15:00,21.3,1,54.7,1,20.2,1,17.5,1
5/5/2004 15:15,21.3,1,54.8,1,20.1,1,16.5,1
5/5/2004 15:30,21.2,1,54.6,1,20.1,1,16.6,1
5/5/2004 15:45,21.2,1,54.7,1,20,1,16.7,1
5/5/2004 16:00,21.2,1,54.6,1,20,1,16.8,1
5/5/2004 16:15,21.1,1,54.6,1,20,1,16.9,1
5/5/2004 16:30,21.1,1,54.5,1,19.9,1,17,1
5/5/2004 16:45,21,1,54.5,1,19.9,1,17.1,1
5/5/2004 17:00,21,1,54.5,1,19.8,1,17.2,1
5/5/2004 17:15,21,1,54.4,1,19.8,1,17.3,1
5/5/2004 17:30,20.9,1,54.4,1,19.8,1,17.3,1
5/5/2004 17:45,20.9,1,54.3,1,19.7,1,17.4,1
5/5/2004 18:00,20.8,1,54.3,1,19.7,1,17.5,1
5/5/2004 18:15,20.8,1,55.1,1,19.6,1,17.6,1
5/5/2004 18:30,20.9,1,54.7,1,19.6,1,16.8,1
5/5/2004 18:45,21,1,55,1,19.5,1,16.6,1
5/5/2004 19:00,21.3,1,56.7,1,19.4,1,16.7,1
5/5/2004 19:15,21.5,1,55.7,1,19.4,1,16.8,1
5/5/2004 19:30,21.6,1,54.9,1,19.3,1,16.9,1
5/5/2004 19:45,21.5,1,53.6,1,19.3,1,17,1
5/5/2004 20:00,21.5,1,54.1,1,19.2,1,17,1
5/5/2004 20:15,21.4,1,54.2,1,19.2,1,17.1,1
5/5/2004 20:30,21.4,1,54.2,1,19.1,1,17.2,1
5/5/2004 20:45,21.4,1,55,1,19.1,1,17.3,1
5/5/2004 21:00,21.6,1,62.8,1,19.1,1,17.3,1
5/5/2004 21:15,21.5,1,58.4,1,19,1,17.4,1
5/5/2004 21:30,22.3,1,57.4,1,19,1,17.5,1
5/5/2004 21:45,22.1,1,57.8,1,19,1,16.8,1
5/5/2004 22:00,21.8,1,57.4,1,19,1,16.9,1
5/5/2004 22:15,22.3,1,58.1,1,19.1,1,16.9,1
5/5/2004 22:30,22,1,57.4,1,19.1,1,17,1
5/5/2004 22:45,21.9,1,56.9,1,19.1,1,17.1,1
5/5/2004 23:00,21.8,1,56.3,1,19.1,1,17.2,1
5/5/2004 23:15,21.6,1,55.8,1,19.2,1,17.3,1
5/5/2004 23:30,21.5,1,55.9,1,19.2,1,17.4,1
5/5/2004 23:45,21.4,1,55.5,1,19.2,1,17.5,1
5/6/2004 0:00,21.3,1,55.3,1,19.2,1,17.5,1
5/6/2004 0:15,21.2,1,55.2,1,19.2,1,17.6,1
5/6/2004 0:30,21.1,1,55,1,19.1,1,17.7,1
5/6/2004 0:45,21,1,55,1,19.1,1,17.7,1
5/6/2004 1:00,20.9,1,55,1,19.1,1,17.8,1
5/6/2004 1:15,20.8,1,54.9,1,19.1,1,17.9,1
5/6/2004 1:30,20.7,1,54.9,1,19.1,1,18,1
5/6/2004 1:45,20.6,1,54.9,1,19.1,1,18,1
5/6/2004 2:00,20.5,1,54.8,1,19.1,1,18.1,1
5/6/2004 2:15,20.4,1,54.9,1,19.1,1,18.2,1
5/6/2004 2:30,20.4,1,54.9,1,19.1,1,18.2,1
5/6/2004 2:45,20.3,1,54.8,1,19.1,1,18.3,1
5/6/2004 3:00,20.2,1,54.9,1,19.1,1,18.3,1
5/6/2004 3:15,20.1,1,54.9,1,19.1,1,18.4,1
5/6/2004 3:30,20.1,1,54.8,1,19.1,1,18.4,1
5/6/2004 3:45,19.9,1,54.8,1,19,1,18.5,1
5/6/2004 4:00,19.9,1,55.1,1,19,1,18.5,1
5/6/2004 4:15,19.8,1,55.3,1,18.9,1,18.6,1
5/6/2004 4:30,19.8,1,55.3,1,18.8,1,18.6,1
5/6/2004 4:45,19.8,1,55.4,1,18.8,1,18.6,1
5/6/2004 5:00,19.8,1,55.4,1,18.7,1,18.7,1
5/6/2004 5:15,19.8,1,55.6,1,18.7,1,18.7,1
5/6/2004 5:30,19.7,1,55.3,1,18.6,1,18.7,1
5/6/2004 5:45,19.6,1,55.4,1,18.6,1,18.8,1
5/6/2004 6:00,19.5,1,55.6,1,18.6,1,17.3,1
5/6/2004 6:15,19.6,1,55.6,1,18.5,1,17.4,1
5/6/2004 6:30,19.5,1,55.7,1,18.5,1,17.4,1
5/6/2004 6:45,19.4,1,56.4,1,18.4,1,17.5,1
5/6/2004 7:00,19.7,1,56.3,1,18.3,1,17.5,1
5/6/2004 7:15,19.6,1,56.1,1,18.3,1,17.6,1
5/6/2004 7:30,19.7,1,57.1,1,18.2,1,17,1
5/6/2004 7:45,19.8,1,57,1,18.2,1,17,1
5/6/2004 8:00,19.7,1,56.5,1,18.2,1,17.1,1
5/6/2004 8:15,19.6,1,56.4,1,18.2,1,17.1,1
5/6/2004 8:30,19.6,1,56,1,18.2,1,17.2,1
5/6/2004 8:45,19.5,1,56,1,18.1,1,17.3,1
5/6/2004 9:00,19.5,1,55.8,1,18.1,1,17.3,1
5/6/2004 9:15,19.5,1,55.7,1,18.1,1,17.4,1
5/6/2004 9:30,19.4,1,55.9,1,18.1,1,17.4,1
5/6/2004 9:45,19.4,1,55.5,1,18.1,1,17.5,1
5/6/2004 10:00,19.4,1,55.6,1,18.1,1,17.5,1
5/6/2004 10:15,19.4,1,55.5,1,18.1,1,17.6,1
5/6/2004 10:30,19.3,1,55.5,1,18.1,1,17.7,1
5/6/2004 10:45,19.3,1,55.6,1,18.1,1,17.7,1
5/6/2004 11:00,19.3,1,55.5,1,18.2,1,17.8,1
5/6/2004 11:15,19.3,1,55.5,1,18.2,1,17.8,1
5/6/2004 11:30,19.3,1,55.6,1,18.2,1,17.9,1
5/6/2004 11:45,19.3,1,55.6,1,18.2,1,17.9,1
5/6/2004 12:00,19.3,1,55.5,1,18.2,1,18,1
5/6/2004 12:15,19.3,1,55.5,1,18.3,1,18,1
5/6/2004 12:30,19.3,1,55.6,1,18.3,1,18.1,1
5/6/2004 12:45,19.3,1,55.4,1,18.3,1,18.1,1
5/6/2004 13:00,19.3,1,55.5,1,18.3,1,18.2,1
5/6/2004 13:15,19.3,1,55.4,1,18.3,1,18.2,1
5/6/2004 13:30,19.3,1,55.4,1,18.4,1,18.3,1
5/6/2004 13:45,19.3,1,55.3,1,18.4,1,18.3,1
5/6/2004 14:00,19.3,1,55.4,1,18.4,1,18.3,1
5/6/2004 14:15,19.3,1,55.3,1,18.4,1,18.4,1
5/6/2004 14:30,19.3,1,55.3,1,18.5,1,18.4,1
5/6/2004 14:45,19.3,1,55.3,1,18.5,1,18.5,1
5/6/2004 15:00,19.3,1,55.3,1,18.5,1,18.5,1
5/6/2004 15:15,19.3,1,55.3,1,18.5,1,18.5,1
5/6/2004 15:30,19.3,1,55.3,1,18.6,1,18.6,1
5/6/2004 15:45,19.4,1,55.3,1,18.6,1,18.6,1
5/6/2004 16:00,19.3,1,55.3,1,18.6,1,18.7,1
5/6/2004 16:15,19.4,1,55.3,1,18.6,1,18.7,1
5/6/2004 16:30,19.4,1,55.4,1,18.6,1,18.7,1
5/6/2004 16:45,19.4,1,55.5,1,18.6,1,16.8,1
5/6/2004 17:00,19.4,1,55.5,1,18.6,1,16.9,1
5/6/2004 17:15,19.4,1,55.4,1,18.6,1,16.9,1
5/6/2004 17:30,19.4,1,55.4,1,18.6,1,17,1
5/6/2004 17:45,19.3,1,55.3,1,18.5,1,17.1,1
5/6/2004 18:00,19.4,1,55.4,1,18.5,1,17.1,1
5/6/2004 18:15,19.4,1,56.3,1,18.5,1,16.5,1
5/6/2004 18:30,19.6,1,57,1,18.5,1,16.5,1
5/6/2004 18:45,19.9,1,58.1,1,18.5,1,16.6,1